Starlink 31381

operational
NORAD ID: 59469 Int'l Des: 2024-068 Owner: SPXS Country: US Constellation: starlink
LEOCIRCULAR

Über Starlink 31381

Beschreibung wird geladen...

Live-Position

3D-Globus wird geladen...

Nächste Überflüge

Höhenverlauf

Altitude vs Time

uPlot chart will show altitude changes over time

Zweizeiliger Elementsatz

1 59469U 24068Q 25258.40223046 .00000633 00000-0 32516-4 0 9999
2 59469 43.0014 301.0848 0001449 272.3585 87.7101 15.27575812 81759
Epoch: 15. Sept. 2025 • Age: 20 hours

Aktueller Status

Höhe 493.1 km
Geschwindigkeit 7.62 km/s
Subsatellitenpunkt -36.98°S, 91.35°E
Startdatum 10. Apr. 2024
Alter 1.4 years
Typ internet

Technische Details

Klassifizierung Payload
Masse 730.00 kg
Trockenmasse 700.00 kg
Gesamtmasse 730.00 kg
Länge 0.30 m
Durchmesser 4.10 m
Spannweite 29.00 m
Form Box + pan
Hersteller SPXS
Bus-Typ Starlink V2M
Phasenstatus In Orbit
Besitzer/Staat SPXS/US

Große Konstellationen

Loading constellations...